Year,Month,Day,Hour,Minute,Value (Times are PST for temperature in C)
2010,08,15,00,00,24.90
2010,08,15,00,01,24.90
2010,08,15,00,02,24.80
2010,08,15,00,03,24.80
2010,08,15,00,04,24.80
2010,08,15,00,05,24.70
2010,08,15,00,06,24.70
2010,08,15,00,07,24.60
2010,08,15,00,08,24.50
2010,08,15,00,09,24.50
2010,08,15,00,10,24.40
2010,08,15,00,11,24.30
2010,08,15,00,12,24.30
2010,08,15,00,13,24.20
2010,08,15,00,14,24.10
2010,08,15,00,15,24.10
2010,08,15,00,16,24.00
2010,08,15,00,17,23.90
2010,08,15,00,18,23.90
2010,08,15,00,19,23.80
2010,08,15,00,20,23.80
2010,08,15,00,21,23.70
2010,08,15,00,22,23.60
2010,08,15,00,23,23.50
2010,08,15,00,24,23.50
2010,08,15,00,25,23.40
2010,08,15,00,26,23.40
2010,08,15,00,27,23.30
2010,08,15,00,28,23.30
2010,08,15,00,29,23.20
2010,08,15,00,30,23.20
2010,08,15,00,31,23.10
2010,08,15,00,32,23.10
2010,08,15,00,33,23.10
2010,08,15,00,34,23.10
2010,08,15,00,35,23.00
2010,08,15,00,36,23.00
2010,08,15,00,37,22.90
2010,08,15,00,38,22.90
2010,08,15,00,39,22.90
2010,08,15,00,40,22.90
2010,08,15,00,41,22.90
2010,08,15,00,42,22.90
2010,08,15,00,43,22.90
2010,08,15,00,44,22.90
2010,08,15,00,45,22.90
2010,08,15,00,46,22.90
2010,08,15,00,47,22.90
2010,08,15,00,48,22.90
2010,08,15,00,49,22.90
2010,08,15,00,50,22.90
2010,08,15,00,51,23.00
2010,08,15,00,52,23.00
2010,08,15,00,53,23.00
2010,08,15,00,54,23.10
2010,08,15,00,55,23.10
2010,08,15,00,56,23.10
2010,08,15,00,57,23.20
2010,08,15,00,58,23.20
2010,08,15,00,59,23.20
2010,08,15,01,00,23.30
2010,08,15,01,01,23.30
2010,08,15,01,02,23.40
2010,08,15,01,03,23.40
2010,08,15,01,04,23.40
2010,08,15,01,05,23.40
2010,08,15,01,06,23.50
2010,08,15,01,07,23.50
2010,08,15,01,08,23.50
2010,08,15,01,09,23.60
2010,08,15,01,10,23.60
2010,08,15,01,11,23.60
2010,08,15,01,12,23.60
2010,08,15,01,13,23.60
2010,08,15,01,14,23.60
2010,08,15,01,15,23.60
2010,08,15,01,16,23.60
2010,08,15,01,17,23.60
2010,08,15,01,18,23.60
2010,08,15,01,19,23.60
2010,08,15,01,20,23.60
2010,08,15,01,21,23.70
2010,08,15,01,22,23.70
2010,08,15,01,23,23.70
2010,08,15,01,24,23.70
2010,08,15,01,25,23.70
2010,08,15,01,26,23.70
2010,08,15,01,27,23.70
2010,08,15,01,28,23.80
2010,08,15,01,29,23.80
2010,08,15,01,30,23.80
2010,08,15,01,31,23.80
2010,08,15,01,32,23.80
2010,08,15,01,33,23.80
2010,08,15,01,34,23.80
2010,08,15,01,35,23.80
2010,08,15,01,36,23.90
2010,08,15,01,37,23.90
2010,08,15,01,38,23.90
2010,08,15,01,39,23.90
2010,08,15,01,40,23.80
2010,08,15,01,41,23.80
2010,08,15,01,42,23.80
2010,08,15,01,43,23.80
2010,08,15,01,44,23.80
2010,08,15,01,45,23.70
2010,08,15,01,46,23.70
2010,08,15,01,47,23.70
2010,08,15,01,48,23.70
2010,08,15,01,49,23.70
2010,08,15,01,50,23.70
2010,08,15,01,51,23.70
2010,08,15,01,52,23.70
2010,08,15,01,53,23.70
2010,08,15,01,54,23.70
2010,08,15,01,55,23.70
2010,08,15,01,56,23.70
2010,08,15,01,57,23.70
2010,08,15,01,58,23.70
2010,08,15,01,59,23.70
2010,08,15,02,00,23.60
2010,08,15,02,01,23.60
2010,08,15,02,02,23.60
2010,08,15,02,03,23.60
2010,08,15,02,04,23.60
2010,08,15,02,05,23.60
2010,08,15,02,06,23.60
2010,08,15,02,07,23.60
2010,08,15,02,08,23.60
2010,08,15,02,09,23.60
2010,08,15,02,10,23.60
2010,08,15,02,11,23.60
2010,08,15,02,12,23.60
2010,08,15,02,13,23.60
2010,08,15,02,14,23.60
2010,08,15,02,15,23.60
2010,08,15,02,16,23.60
2010,08,15,02,17,23.60
2010,08,15,02,18,23.60
2010,08,15,02,19,23.50
2010,08,15,02,20,23.50
2010,08,15,02,21,23.50
2010,08,15,02,22,23.50
2010,08,15,02,23,23.50
2010,08,15,02,24,23.50
2010,08,15,02,25,23.50
2010,08,15,02,26,23.40
2010,08,15,02,27,23.40
2010,08,15,02,28,23.40
2010,08,15,02,29,23.40
2010,08,15,02,30,23.40
2010,08,15,02,31,23.40
2010,08,15,02,32,23.30
2010,08,15,02,33,23.30
2010,08,15,02,34,23.30
2010,08,15,02,35,23.30
2010,08,15,02,36,23.30
2010,08,15,02,37,23.30
2010,08,15,02,38,23.20
2010,08,15,02,39,23.20
2010,08,15,02,40,23.20
2010,08,15,02,41,23.20
2010,08,15,02,42,23.20
2010,08,15,02,43,23.10
2010,08,15,02,44,23.10
2010,08,15,02,45,23.10
2010,08,15,02,46,23.00
2010,08,15,02,47,23.00
2010,08,15,02,48,23.00
2010,08,15,02,49,22.90
2010,08,15,02,50,22.90
2010,08,15,02,51,22.90
2010,08,15,02,52,22.90
2010,08,15,02,53,22.90
2010,08,15,02,54,22.80
2010,08,15,02,55,22.80
2010,08,15,02,56,22.80
2010,08,15,02,57,22.80
2010,08,15,02,58,22.70
2010,08,15,02,59,22.70
2010,08,15,03,00,22.70
2010,08,15,03,01,22.60
2010,08,15,03,02,22.60
2010,08,15,03,03,22.60
2010,08,15,03,04,22.60
2010,08,15,03,05,22.50
2010,08,15,03,06,22.50
2010,08,15,03,07,22.40
2010,08,15,03,08,22.40
2010,08,15,03,09,22.30
2010,08,15,03,10,22.30
2010,08,15,03,11,22.30
2010,08,15,03,12,22.20
2010,08,15,03,13,22.20
2010,08,15,03,14,22.20
2010,08,15,03,15,22.20
2010,08,15,03,16,22.10
2010,08,15,03,17,22.10
2010,08,15,03,18,22.10
2010,08,15,03,19,22.10
2010,08,15,03,20,22.10
2010,08,15,03,21,22.10
2010,08,15,03,22,22.10
2010,08,15,03,23,22.10
2010,08,15,03,24,22.00
2010,08,15,03,25,22.00
2010,08,15,03,26,22.00
2010,08,15,03,27,21.90
2010,08,15,03,28,21.90
2010,08,15,03,29,21.90
2010,08,15,03,30,21.90
2010,08,15,03,31,21.80
2010,08,15,03,32,21.80
2010,08,15,03,33,21.80
2010,08,15,03,34,21.80
2010,08,15,03,35,21.80
2010,08,15,03,36,21.70
2010,08,15,03,37,21.70
2010,08,15,03,38,21.70
2010,08,15,03,39,21.70
2010,08,15,03,40,21.70
2010,08,15,03,41,21.70
2010,08,15,03,42,21.70
2010,08,15,03,43,21.70
2010,08,15,03,44,21.60
2010,08,15,03,45,21.60
2010,08,15,03,46,21.60
2010,08,15,03,47,21.60
2010,08,15,03,48,21.60
2010,08,15,03,49,21.60
2010,08,15,03,50,21.60
2010,08,15,03,51,21.60
2010,08,15,03,52,21.60
2010,08,15,03,53,21.50
2010,08,15,03,54,21.50
2010,08,15,03,55,21.50
2010,08,15,03,56,21.40
2010,08,15,03,57,21.40
2010,08,15,03,58,21.40
2010,08,15,03,59,21.40
2010,08,15,04,00,21.40
2010,08,15,04,01,21.40
2010,08,15,04,02,21.30
2010,08,15,04,03,21.30
2010,08,15,04,04,21.30
2010,08,15,04,05,21.30
2010,08,15,04,06,21.30
2010,08,15,04,07,21.30
2010,08,15,04,08,21.30
2010,08,15,04,09,21.30
2010,08,15,04,10,21.30
2010,08,15,04,11,21.30
2010,08,15,04,12,21.30
2010,08,15,04,13,21.30
2010,08,15,04,14,21.30
2010,08,15,04,15,21.30
2010,08,15,04,16,21.30
2010,08,15,04,17,21.30
2010,08,15,04,18,21.30
2010,08,15,04,19,21.30
2010,08,15,04,20,21.30
2010,08,15,04,21,21.30
2010,08,15,04,22,21.30
2010,08,15,04,23,21.30
2010,08,15,04,24,21.30
2010,08,15,04,25,21.30
2010,08,15,04,26,21.30
2010,08,15,04,27,21.30
2010,08,15,04,28,21.30
2010,08,15,04,29,21.30
2010,08,15,04,30,21.30
2010,08,15,04,31,21.30
2010,08,15,04,32,21.20
2010,08,15,04,33,21.20
2010,08,15,04,34,21.20
2010,08,15,04,35,21.20
2010,08,15,04,36,21.20
2010,08,15,04,37,21.10
2010,08,15,04,38,21.10
2010,08,15,04,39,21.10
2010,08,15,04,40,21.10
2010,08,15,04,41,21.00
2010,08,15,04,42,21.00
2010,08,15,04,43,21.00
2010,08,15,04,44,21.00
2010,08,15,04,45,21.00
2010,08,15,04,46,20.90
2010,08,15,04,47,20.90
2010,08,15,04,48,21.00
2010,08,15,04,49,21.00
2010,08,15,04,50,21.00
2010,08,15,04,51,21.00
2010,08,15,04,52,21.10
2010,08,15,04,53,21.10
2010,08,15,04,54,21.10
2010,08,15,04,55,21.10
2010,08,15,04,56,21.10
2010,08,15,04,57,21.10
2010,08,15,04,58,21.10
2010,08,15,04,59,21.10
2010,08,15,05,00,21.10
2010,08,15,05,01,21.10
2010,08,15,05,02,21.00
2010,08,15,05,03,21.00
2010,08,15,05,04,21.00
2010,08,15,05,05,21.00
2010,08,15,05,06,20.90
2010,08,15,05,07,20.90
2010,08,15,05,08,20.90
2010,08,15,05,09,20.90
2010,08,15,05,10,20.80
2010,08,15,05,11,20.80
2010,08,15,05,12,20.80
2010,08,15,05,13,20.80
2010,08,15,05,14,20.80
2010,08,15,05,15,20.70
2010,08,15,05,16,20.70
2010,08,15,05,17,20.70
2010,08,15,05,18,20.70
2010,08,15,05,19,20.70
2010,08,15,05,20,20.70
2010,08,15,05,21,20.70
2010,08,15,05,22,20.70
2010,08,15,05,23,20.70
2010,08,15,05,24,20.70
2010,08,15,05,25,20.70
2010,08,15,05,26,20.70
2010,08,15,05,27,20.70
2010,08,15,05,28,20.70
2010,08,15,05,29,20.70
2010,08,15,05,30,20.70
2010,08,15,05,31,20.70
2010,08,15,05,32,20.70
2010,08,15,05,33,20.70
2010,08,15,05,34,20.70
2010,08,15,05,35,20.70
2010,08,15,05,36,20.70
2010,08,15,05,37,20.70
2010,08,15,05,38,20.70
2010,08,15,05,39,20.70
2010,08,15,05,40,20.70
2010,08,15,05,41,20.70
2010,08,15,05,42,20.70
2010,08,15,05,43,20.70
2010,08,15,05,44,20.70
2010,08,15,05,45,20.70
2010,08,15,05,46,20.70
2010,08,15,05,47,20.70
2010,08,15,05,48,20.80
2010,08,15,05,49,20.80
2010,08,15,05,50,20.80
2010,08,15,05,51,20.80
2010,08,15,05,52,20.80
2010,08,15,05,53,20.80
2010,08,15,05,54,20.80
2010,08,15,05,55,20.80
2010,08,15,05,56,20.80
2010,08,15,05,57,20.80
2010,08,15,05,58,20.80
2010,08,15,05,59,20.80
2010,08,15,06,00,20.80
2010,08,15,06,01,20.80
2010,08,15,06,02,20.80
2010,08,15,06,03,20.80
2010,08,15,06,04,20.80
2010,08,15,06,05,20.80
2010,08,15,06,06,20.80
2010,08,15,06,07,20.80
2010,08,15,06,08,20.80
2010,08,15,06,09,20.80
2010,08,15,06,10,20.80
2010,08,15,06,11,20.80
2010,08,15,06,12,20.80
2010,08,15,06,13,20.80
2010,08,15,06,14,20.80
2010,08,15,06,15,20.80
2010,08,15,06,16,20.80
2010,08,15,06,17,20.80
2010,08,15,06,18,20.80
2010,08,15,06,19,20.80
2010,08,15,06,20,20.80
2010,08,15,06,21,20.80
2010,08,15,06,22,20.80
2010,08,15,06,23,20.80
2010,08,15,06,24,20.80
2010,08,15,06,25,20.80
2010,08,15,06,26,20.80
2010,08,15,06,27,20.80
2010,08,15,06,28,20.80
2010,08,15,06,29,20.80
2010,08,15,06,30,20.80
2010,08,15,06,31,20.80
2010,08,15,06,32,20.80
2010,08,15,06,33,20.90
2010,08,15,06,34,20.90
2010,08,15,06,35,20.90
2010,08,15,06,36,20.90
2010,08,15,06,37,20.90
2010,08,15,06,38,20.90
2010,08,15,06,39,20.90
2010,08,15,06,40,20.80
2010,08,15,06,41,20.80
2010,08,15,06,42,20.80
2010,08,15,06,43,20.80
2010,08,15,06,44,20.80
2010,08,15,06,45,20.80
2010,08,15,06,46,20.80
2010,08,15,06,47,20.80
2010,08,15,06,48,20.70
2010,08,15,06,49,20.70
2010,08,15,06,50,20.70
2010,08,15,06,51,20.70
2010,08,15,06,52,20.60
2010,08,15,06,53,20.60
2010,08,15,06,54,20.60
2010,08,15,06,55,20.60
2010,08,15,06,56,20.60
2010,08,15,06,57,20.60
2010,08,15,06,58,20.60
2010,08,15,06,59,20.60
2010,08,15,07,00,20.70
2010,08,15,07,01,20.70
2010,08,15,07,02,20.70
2010,08,15,07,03,20.70
2010,08,15,07,04,20.70
2010,08,15,07,05,20.70
2010,08,15,07,06,20.70
2010,08,15,07,07,20.70
2010,08,15,07,08,20.70
2010,08,15,07,09,20.80
2010,08,15,07,10,20.80
2010,08,15,07,11,20.80
2010,08,15,07,12,20.80
2010,08,15,07,13,20.80
2010,08,15,07,14,20.80
2010,08,15,07,15,20.80
2010,08,15,07,16,20.90
2010,08,15,07,17,20.90
2010,08,15,07,18,20.90
2010,08,15,07,19,20.90
2010,08,15,07,20,21.00
2010,08,15,07,21,21.00
2010,08,15,07,22,21.00
2010,08,15,07,23,21.10
2010,08,15,07,24,21.10
2010,08,15,07,25,21.10
2010,08,15,07,26,21.10
2010,08,15,07,27,21.20
2010,08,15,07,28,21.30
2010,08,15,07,29,21.30
2010,08,15,07,30,21.40
2010,08,15,07,31,21.50
2010,08,15,07,32,21.50
2010,08,15,07,33,21.60
2010,08,15,07,34,21.70
2010,08,15,07,35,21.80
2010,08,15,07,36,21.80
2010,08,15,07,37,21.90
2010,08,15,07,38,21.90
2010,08,15,07,39,22.00
2010,08,15,07,40,22.10
2010,08,15,07,41,22.10
2010,08,15,07,42,22.20
2010,08,15,07,43,22.30
2010,08,15,07,44,22.40
2010,08,15,07,45,22.40
2010,08,15,07,46,22.50
2010,08,15,07,47,22.50
2010,08,15,07,48,22.60
2010,08,15,07,49,22.70
2010,08,15,07,50,22.70
2010,08,15,07,51,22.80
2010,08,15,07,52,22.90
2010,08,15,07,53,23.00
2010,08,15,07,54,23.00
2010,08,15,07,55,23.10
2010,08,15,07,56,23.10
2010,08,15,07,57,23.20
2010,08,15,07,58,23.20
2010,08,15,07,59,23.20
2010,08,15,08,00,23.20
2010,08,15,08,01,23.20
2010,08,15,08,02,23.20
2010,08,15,08,03,23.30
2010,08,15,08,04,23.30
2010,08,15,08,05,23.30
2010,08,15,08,06,23.30
2010,08,15,08,07,23.40
2010,08,15,08,08,23.40
2010,08,15,08,09,23.30
2010,08,15,08,10,23.40
2010,08,15,08,11,23.40
2010,08,15,08,12,23.40
2010,08,15,08,13,23.50
2010,08,15,08,14,23.50
2010,08,15,08,15,23.50
2010,08,15,08,16,23.60
2010,08,15,08,17,23.60
2010,08,15,08,18,23.60
2010,08,15,08,19,23.60
2010,08,15,08,20,23.60
2010,08,15,08,21,23.60
2010,08,15,08,22,23.60
2010,08,15,08,23,23.60
2010,08,15,08,24,23.70
2010,08,15,08,25,23.70
2010,08,15,08,26,23.80
2010,08,15,08,27,23.80
2010,08,15,08,28,23.80
2010,08,15,08,29,23.90
2010,08,15,08,30,23.90
2010,08,15,08,31,24.00
2010,08,15,08,32,24.00
2010,08,15,08,33,24.10
2010,08,15,08,34,24.10
2010,08,15,08,35,24.20
2010,08,15,08,36,24.20
2010,08,15,08,37,24.30
2010,08,15,08,38,24.30
2010,08,15,08,39,24.40
2010,08,15,08,40,24.40
2010,08,15,08,41,24.40
2010,08,15,08,42,24.40
2010,08,15,08,43,24.40
2010,08,15,08,44,24.50
2010,08,15,08,45,24.50
2010,08,15,08,46,24.60
2010,08,15,08,47,24.60
2010,08,15,08,48,24.60
2010,08,15,08,49,24.70
2010,08,15,08,50,24.80
2010,08,15,08,51,24.80
2010,08,15,08,52,24.90
2010,08,15,08,53,25.00
2010,08,15,08,54,25.10
2010,08,15,08,55,25.10
2010,08,15,08,56,25.20
2010,08,15,08,57,25.20
2010,08,15,08,58,25.30
2010,08,15,08,59,25.40
2010,08,15,09,00,25.50
2010,08,15,09,01,25.60
2010,08,15,09,02,25.70
2010,08,15,09,03,25.90
2010,08,15,09,04,25.90
2010,08,15,09,05,26.00
2010,08,15,09,06,26.10
2010,08,15,09,07,26.20
2010,08,15,09,08,26.20
2010,08,15,09,09,26.30
2010,08,15,09,10,26.20
2010,08,15,09,11,26.20
2010,08,15,09,12,26.10
2010,08,15,09,13,26.00
2010,08,15,09,14,25.90
2010,08,15,09,15,25.70
2010,08,15,09,16,25.40
2010,08,15,09,17,25.20
2010,08,15,09,18,25.00
2010,08,15,09,19,24.90
2010,08,15,09,20,24.80
2010,08,15,09,21,24.80
2010,08,15,09,22,24.70
2010,08,15,09,23,24.70
2010,08,15,09,24,24.70
2010,08,15,09,25,24.80
2010,08,15,09,26,24.80
2010,08,15,09,27,24.80
2010,08,15,09,28,24.80
2010,08,15,09,29,24.90
2010,08,15,09,30,24.90
2010,08,15,09,31,24.90
2010,08,15,09,32,24.90
2010,08,15,09,33,24.90
2010,08,15,09,34,24.90
2010,08,15,09,35,24.90
2010,08,15,09,36,24.90
2010,08,15,09,37,25.00
2010,08,15,09,38,25.00
2010,08,15,09,39,25.10
2010,08,15,09,40,25.10
2010,08,15,09,41,25.10
2010,08,15,09,42,24.90
2010,08,15,09,43,24.80
2010,08,15,09,44,24.70
2010,08,15,09,45,24.50
2010,08,15,09,46,24.50
2010,08,15,09,47,24.40
2010,08,15,09,48,24.40
2010,08,15,09,49,24.40
2010,08,15,09,50,24.40
2010,08,15,09,51,24.50
2010,08,15,09,52,24.50
2010,08,15,09,53,24.60
2010,08,15,09,54,24.60
2010,08,15,09,55,24.70
2010,08,15,09,56,24.70
2010,08,15,09,57,24.80
2010,08,15,09,58,24.80
2010,08,15,09,59,24.80
2010,08,15,10,00,24.90
2010,08,15,10,01,24.90
2010,08,15,10,02,24.90
2010,08,15,10,03,25.00
2010,08,15,10,04,25.10
2010,08,15,10,05,25.10
2010,08,15,10,06,25.20
2010,08,15,10,07,25.20
2010,08,15,10,08,25.30
2010,08,15,10,09,25.30
2010,08,15,10,10,25.30
2010,08,15,10,11,25.30
2010,08,15,10,12,25.30
2010,08,15,10,13,25.20
2010,08,15,10,14,25.10
2010,08,15,10,15,25.10
2010,08,15,10,16,25.00
2010,08,15,10,17,25.10
2010,08,15,10,18,25.10
2010,08,15,10,19,25.10
2010,08,15,10,20,25.20
2010,08,15,10,21,25.20
2010,08,15,10,22,25.20
2010,08,15,10,23,25.30
2010,08,15,10,24,25.30
2010,08,15,10,25,25.30
2010,08,15,10,26,25.40
2010,08,15,10,27,25.40
2010,08,15,10,28,25.50
2010,08,15,10,29,25.60
2010,08,15,10,30,25.60
2010,08,15,10,31,25.60
2010,08,15,10,32,25.60
2010,08,15,10,33,25.60
2010,08,15,10,34,25.50
2010,08,15,10,35,25.50
2010,08,15,10,36,25.40
2010,08,15,10,37,25.30
2010,08,15,10,38,25.20
2010,08,15,10,39,25.20
2010,08,15,10,40,25.20
2010,08,15,10,41,25.10
2010,08,15,10,42,25.20
2010,08,15,10,43,25.20
2010,08,15,10,44,25.20
2010,08,15,10,45,25.20
2010,08,15,10,46,25.20
2010,08,15,10,47,25.20
2010,08,15,10,48,25.20
2010,08,15,10,49,25.20
2010,08,15,10,50,25.20
2010,08,15,10,51,25.20
2010,08,15,10,52,25.20
2010,08,15,10,53,25.30
2010,08,15,10,54,25.40
2010,08,15,10,55,25.50
2010,08,15,10,56,25.60
2010,08,15,10,57,25.70
2010,08,15,10,58,25.80
2010,08,15,10,59,25.80
2010,08,15,11,00,25.80
2010,08,15,11,01,25.80
2010,08,15,11,02,25.80
2010,08,15,11,03,25.90
2010,08,15,11,04,25.90
2010,08,15,11,05,25.90
2010,08,15,11,06,26.00
2010,08,15,11,07,26.00
2010,08,15,11,08,26.10
2010,08,15,11,09,26.10
2010,08,15,11,10,26.10
2010,08,15,11,11,26.10
2010,08,15,11,12,26.10
2010,08,15,11,13,26.10
2010,08,15,11,14,26.10
2010,08,15,11,15,26.10
2010,08,15,11,16,26.10
2010,08,15,11,17,26.10
2010,08,15,11,18,26.10
2010,08,15,11,19,26.10
2010,08,15,11,20,26.10
2010,08,15,11,21,26.00
2010,08,15,11,22,25.90
2010,08,15,11,23,25.90
2010,08,15,11,24,25.90
2010,08,15,11,25,25.90
2010,08,15,11,26,25.90
2010,08,15,11,27,25.90
2010,08,15,11,28,25.90
2010,08,15,11,29,25.90
2010,08,15,11,30,25.90
2010,08,15,11,31,25.80
2010,08,15,11,32,25.70
2010,08,15,11,33,25.60
2010,08,15,11,34,25.60
2010,08,15,11,35,25.50
2010,08,15,11,36,25.50
2010,08,15,11,37,25.40
2010,08,15,11,38,25.40
2010,08,15,11,39,25.40
2010,08,15,11,40,25.40
2010,08,15,11,41,25.30
2010,08,15,11,42,25.30
2010,08,15,11,43,25.30
2010,08,15,11,44,25.30
2010,08,15,11,45,25.40
2010,08,15,11,46,25.40
2010,08,15,11,47,25.50
2010,08,15,11,48,25.60
2010,08,15,11,49,25.60
2010,08,15,11,50,25.70
2010,08,15,11,51,25.70
2010,08,15,11,52,25.70
2010,08,15,11,53,25.70
2010,08,15,11,54,25.70
2010,08,15,11,55,25.80
2010,08,15,11,56,25.90
2010,08,15,11,57,25.90
2010,08,15,11,58,25.90
2010,08,15,11,59,26.00
2010,08,15,12,00,26.10
2010,08,15,12,01,26.10
2010,08,15,12,02,26.00
2010,08,15,12,03,26.00
2010,08,15,12,04,25.90
2010,08,15,12,05,25.90
2010,08,15,12,06,25.90
2010,08,15,12,07,25.80
2010,08,15,12,08,25.80
2010,08,15,12,09,25.70
2010,08,15,12,10,25.70
2010,08,15,12,11,25.70
2010,08,15,12,12,25.80
2010,08,15,12,13,25.80
2010,08,15,12,14,25.90
2010,08,15,12,15,25.90
2010,08,15,12,16,25.90
2010,08,15,12,17,26.00
2010,08,15,12,18,26.10
2010,08,15,12,19,26.20
2010,08,15,12,20,26.20
2010,08,15,12,21,26.30
2010,08,15,12,22,26.30
2010,08,15,12,23,26.40
2010,08,15,12,24,26.40
2010,08,15,12,25,26.50
2010,08,15,12,26,26.50
2010,08,15,12,27,26.50
2010,08,15,12,28,26.50
2010,08,15,12,29,26.50
2010,08,15,12,30,26.40
2010,08,15,12,31,26.40
2010,08,15,12,32,26.30
2010,08,15,12,33,26.30
2010,08,15,12,34,26.30
2010,08,15,12,35,26.30
2010,08,15,12,36,26.30
2010,08,15,12,37,26.20
2010,08,15,12,38,26.20
2010,08,15,12,39,26.20
2010,08,15,12,40,26.20
2010,08,15,12,41,26.20
2010,08,15,12,42,26.20
2010,08,15,12,43,26.20
2010,08,15,12,44,26.20
2010,08,15,12,45,26.20
2010,08,15,12,46,26.30
2010,08,15,12,47,26.30
2010,08,15,12,48,26.30
2010,08,15,12,49,26.30
2010,08,15,12,50,26.20
2010,08,15,12,51,26.20
2010,08,15,12,52,26.10
2010,08,15,12,53,26.00
2010,08,15,12,54,25.90
2010,08,15,12,55,25.90
2010,08,15,12,56,25.90
2010,08,15,12,57,25.90
2010,08,15,12,58,25.90
2010,08,15,12,59,25.90
2010,08,15,13,00,25.90
2010,08,15,13,01,25.90
2010,08,15,13,02,26.00
2010,08,15,13,03,26.00
2010,08,15,13,04,26.00
2010,08,15,13,05,26.00
2010,08,15,13,06,26.00
2010,08,15,13,07,26.10
2010,08,15,13,08,26.10
2010,08,15,13,09,26.20
2010,08,15,13,10,26.30
2010,08,15,13,11,26.30
2010,08,15,13,12,26.40
2010,08,15,13,13,26.40
2010,08,15,13,14,26.40
2010,08,15,13,15,26.40
2010,08,15,13,16,26.30
2010,08,15,13,17,26.30
2010,08,15,13,18,26.30
2010,08,15,13,19,26.30
2010,08,15,13,20,26.30
2010,08,15,13,21,26.30
2010,08,15,13,22,26.30
2010,08,15,13,23,26.30
2010,08,15,13,24,26.40
2010,08,15,13,25,26.40
2010,08,15,13,26,26.50
2010,08,15,13,27,26.50
2010,08,15,13,28,26.60
2010,08,15,13,29,26.70
2010,08,15,13,30,26.70
2010,08,15,13,31,26.80
2010,08,15,13,32,26.80
2010,08,15,13,33,26.90
2010,08,15,13,34,27.10
2010,08,15,13,35,27.20
2010,08,15,13,36,27.30
2010,08,15,13,37,27.30
2010,08,15,13,38,27.40
2010,08,15,13,39,27.40
2010,08,15,13,40,27.40
2010,08,15,13,41,27.50
2010,08,15,13,42,27.60
2010,08,15,13,43,27.70
2010,08,15,13,44,27.70
2010,08,15,13,45,27.80
2010,08,15,13,46,27.80
2010,08,15,13,47,27.80
2010,08,15,13,48,27.90
2010,08,15,13,49,28.00
2010,08,15,13,50,28.10
2010,08,15,13,51,28.20
2010,08,15,13,52,28.20
2010,08,15,13,53,28.20
2010,08,15,13,54,28.20
2010,08,15,13,55,28.30
2010,08,15,13,56,28.30
2010,08,15,13,57,28.40
2010,08,15,13,58,28.40
2010,08,15,13,59,28.40
2010,08,15,14,00,28.40
2010,08,15,14,01,28.40
2010,08,15,14,02,28.40
2010,08,15,14,03,28.40
2010,08,15,14,04,28.40
2010,08,15,14,05,28.40
2010,08,15,14,06,28.30
2010,08,15,14,07,28.30
2010,08,15,14,08,28.30
2010,08,15,14,09,28.30
2010,08,15,14,10,28.30
2010,08,15,14,11,28.30
2010,08,15,14,12,28.30
2010,08,15,14,13,28.30
2010,08,15,14,14,28.30
2010,08,15,14,15,28.30
2010,08,15,14,16,28.30
2010,08,15,14,17,28.30
2010,08,15,14,18,28.30
2010,08,15,14,19,28.40
2010,08,15,14,20,28.40
2010,08,15,14,21,28.40
2010,08,15,14,22,28.30
2010,08,15,14,23,28.30
2010,08,15,14,24,28.40
2010,08,15,14,25,28.40
2010,08,15,14,26,28.50
2010,08,15,14,27,28.50
2010,08,15,14,28,28.40
2010,08,15,14,29,28.40
2010,08,15,14,30,28.30
2010,08,15,14,31,28.30
2010,08,15,14,32,28.30
2010,08,15,14,33,28.30
2010,08,15,14,34,28.30
2010,08,15,14,35,28.20
2010,08,15,14,36,28.20
2010,08,15,14,37,28.20
2010,08,15,14,38,28.20
2010,08,15,14,39,28.20
2010,08,15,14,40,28.30
2010,08,15,14,41,28.30
2010,08,15,14,42,28.40
2010,08,15,14,43,28.50
2010,08,15,14,44,28.50
2010,08,15,14,45,28.60
2010,08,15,14,46,28.60
2010,08,15,14,47,28.60
2010,08,15,14,48,28.50
2010,08,15,14,49,28.50
2010,08,15,14,50,28.50
2010,08,15,14,51,28.40
2010,08,15,14,52,28.30
2010,08,15,14,53,28.20
2010,08,15,14,54,28.20
2010,08,15,14,55,28.10
2010,08,15,14,56,28.10
2010,08,15,14,57,28.10
2010,08,15,14,58,28.10
2010,08,15,14,59,28.10
2010,08,15,15,00,28.10
2010,08,15,15,01,28.10
2010,08,15,15,02,28.10
2010,08,15,15,03,28.10
2010,08,15,15,04,28.20
2010,08,15,15,05,28.30
2010,08,15,15,06,28.40
2010,08,15,15,07,28.40
2010,08,15,15,08,28.50
2010,08,15,15,09,28.50
2010,08,15,15,10,28.60
2010,08,15,15,11,28.60
2010,08,15,15,12,28.50
2010,08,15,15,13,28.60
2010,08,15,15,14,28.70
2010,08,15,15,15,28.80
2010,08,15,15,16,28.90
2010,08,15,15,17,28.90
2010,08,15,15,18,28.90
2010,08,15,15,19,28.90
2010,08,15,15,20,28.90
2010,08,15,15,21,28.90
2010,08,15,15,22,28.90
2010,08,15,15,23,28.80
2010,08,15,15,24,28.80
2010,08,15,15,25,28.80
2010,08,15,15,26,28.80
2010,08,15,15,27,28.80
2010,08,15,15,28,28.80
2010,08,15,15,29,28.70
2010,08,15,15,30,28.70
2010,08,15,15,31,28.70
2010,08,15,15,32,28.70
2010,08,15,15,33,28.70
2010,08,15,15,34,28.70
2010,08,15,15,35,28.60
2010,08,15,15,36,28.50
2010,08,15,15,37,28.40
2010,08,15,15,38,28.40
2010,08,15,15,39,28.40
2010,08,15,15,40,28.50
2010,08,15,15,41,28.50
2010,08,15,15,42,28.50
2010,08,15,15,43,28.50
2010,08,15,15,44,28.50
2010,08,15,15,45,28.60
2010,08,15,15,46,28.60
2010,08,15,15,47,28.70
2010,08,15,15,48,28.80
2010,08,15,15,49,28.90
2010,08,15,15,50,29.00
2010,08,15,15,51,29.20
2010,08,15,15,52,29.30
2010,08,15,15,53,29.40
2010,08,15,15,54,29.60
2010,08,15,15,55,29.70
2010,08,15,15,56,29.60
2010,08,15,15,57,29.60
2010,08,15,15,58,29.60
2010,08,15,15,59,29.60
2010,08,15,16,00,29.60
2010,08,15,16,01,29.60
2010,08,15,16,02,29.60
2010,08,15,16,03,29.60
2010,08,15,16,04,29.60
2010,08,15,16,05,29.70
2010,08,15,16,06,29.70
2010,08,15,16,07,29.80
2010,08,15,16,08,29.70
2010,08,15,16,09,29.70
2010,08,15,16,10,29.50
2010,08,15,16,11,29.40
2010,08,15,16,12,29.30
2010,08,15,16,13,29.30
2010,08,15,16,14,29.20
2010,08,15,16,15,29.20
2010,08,15,16,16,29.30
2010,08,15,16,17,29.40
2010,08,15,16,18,29.60
2010,08,15,16,19,29.70
2010,08,15,16,20,29.70
2010,08,15,16,21,29.80
2010,08,15,16,22,29.80
2010,08,15,16,23,29.80
2010,08,15,16,24,29.80
2010,08,15,16,25,29.90
2010,08,15,16,26,29.90
2010,08,15,16,27,30.00
2010,08,15,16,28,30.10
2010,08,15,16,29,30.20
2010,08,15,16,30,30.30
2010,08,15,16,31,30.40
2010,08,15,16,32,30.50
2010,08,15,16,33,30.50
2010,08,15,16,34,30.60
2010,08,15,16,35,30.60
2010,08,15,16,36,30.60
2010,08,15,16,37,30.70
2010,08,15,16,38,30.80
2010,08,15,16,39,30.80
2010,08,15,16,40,30.90
2010,08,15,16,41,30.90
2010,08,15,16,42,31.00
2010,08,15,16,43,31.00
2010,08,15,16,44,31.10
2010,08,15,16,45,31.10
2010,08,15,16,46,31.20
2010,08,15,16,47,31.30
2010,08,15,16,48,31.30
2010,08,15,16,49,31.30
2010,08,15,16,50,31.40
2010,08,15,16,51,31.40
2010,08,15,16,52,31.30
2010,08,15,16,53,31.30
2010,08,15,16,54,31.30
2010,08,15,16,55,31.30
2010,08,15,16,56,31.20
2010,08,15,16,57,31.20
2010,08,15,16,58,31.10
2010,08,15,16,59,31.10
2010,08,15,17,00,31.20
2010,08,15,17,01,31.30
2010,08,15,17,02,31.50
2010,08,15,17,03,31.60
2010,08,15,17,04,31.60
2010,08,15,17,05,31.70
2010,08,15,17,06,31.70
2010,08,15,17,07,31.60
2010,08,15,17,08,31.60
2010,08,15,17,09,31.50
2010,08,15,17,10,31.50
2010,08,15,17,11,31.50
2010,08,15,17,12,31.60
2010,08,15,17,13,31.60
2010,08,15,17,14,31.60
2010,08,15,17,15,31.60
2010,08,15,17,16,31.60
2010,08,15,17,17,31.60
2010,08,15,17,18,31.60
2010,08,15,17,19,31.70